Weather observations for the past three days for
Fredericksburg, Gillespie County Airport
Imperial (Metric)
Date Time (cdt) Wind (mph) Vis. (mi.) Weather Sky Cond. Temperature (ºF) Relative Humidity Wind Chill (°F) Heat Index (°F) Pressure Precipitation (in)
Air Dwpt 6 hour altimeter (in) sea level (mb) 1 hr 3 hr 6 hr
Max. Min.
25 08:55 S 10 10.00 Mostly Cloudy SCT012 BKN034 79.5 73.4 82% 83 30.01 0.0
25 08:35 S 9 10.00 Overcast OVC012 77.9 72.9 85% 80 30.01 0.0
25 08:15 S 7 10.00 Overcast OVC012 77.4 72.7 86% 79 30.01 0.0
25 07:55 S 6 10.00 Overcast OVC012 77.2 73 87% 79 30 0.0
25 07:35 S 5 10.00 Overcast BKN012 OVC019 77.4 73 87% 79 29.99 0.0
25 07:15 S 5 10.00 Overcast OVC016 77.2 73.2 88% 79 29.99 0.0
25 06:55 S 6 10.00 Overcast OVC012 77 73.4 79.7 76.6 89% 78 29.99 0.0
25 06:35 S 5 10.00 Overcast OVC012 77.2 73.4 88% 79 29.99 0.0
25 06:15 S 6 10.00 Overcast OVC014 77.2 73.4 88% 79 29.98 0.0
25 05:55 S 5 10.00 Overcast OVC014 77.2 73.4 88% 79 29.98 0.0
25 05:35 S 9 10.00 Overcast OVC014 77.2 73.4 88% 79 29.98 0.0
25 05:15 S 8 10.00 Overcast BKN014 OVC026 77.2 73.4 88% 79 29.98 0.0
25 04:55 S 5 10.00 Overcast SCT014 OVC024 77 73 88% 78 29.97 0.0
25 04:35 S 6 10.00 Partly Cloudy SCT022 76.6 72.9 88% 78 29.97 0.0
25 04:15 S 7 10.00 Partly Cloudy SCT031 77.2 72.9 87% 79 29.97 0.0
25 03:55 S 7 10.00 Mostly Cloudy SCT019 BKN029 77.9 73.2 86% 80 29.97 0.0
25 03:35 S 7 10.00 Mostly Cloudy SCT023 BKN029 BKN036 77.9 73.4 86% 80 29.97 0.0
25 03:15 S 8 10.00 Partly Cloudy SCT021 SCT034 78.1 73.6 86% 81 29.97 0.0
25 02:55 S 8 10.00 Mostly Cloudy BKN019 BKN032 78.3 73.6 86% 81 29.97 0.0
25 02:35 S 6 10.00 Mostly Cloudy SCT017 BKN032 78.4 73.6 85% 81 29.97 0.0
25 02:15 S 10 10.00 Partly Cloudy SCT017 78.8 73.9 85% 82 29.97 0.0
25 01:55 S 6 10.00 Mostly Cloudy BKN017 78.8 73.9 85% 82 29.98 0.0
25 01:35 S 6 10.00 Partly Cloudy SCT017 79.2 73.9 84% 83 29.97 0.0
25 01:15 S 7 10.00 Partly Cloudy SCT017 79.3 73.9 84% 83 29.98 0.0
25 00:55 S 8 10.00 Fair CLR 79.7 73.4 91.2 79.7 81% 84 29.98 0.0
25 00:35 S 6 10.00 Fair CLR 80.1 73 79% 84 29.98 0.0
25 00:15 S 7 10.00 Fair CLR 80.6 72.9 77% 85 29.97 0.0
24 23:55 SE 6 10.00 Fair CLR 81.1 72.7 76% 86 29.97 0.0
24 23:35 SE 5 10.00 Fair CLR 81.5 72.5 74% 86 29.96 0.0
24 23:15 SE 5 10.00 Fair CLR 81.5 72.5 74% 86 29.96 0.0
24 22:55 SE 6 10.00 Fair CLR 82 72.1 72% 87 29.96 0.0
24 22:35 SE 3 10.00 Fair CLR 82.4 71.6 70% 87 29.96 0.0
24 22:15 SE 5 10.00 Fair CLR 83.1 71.6 68% 88 29.95 0.0
24 21:55 SE 5 10.00 Fair CLR 83.3 71.1 67% 88 29.94 0.0
24 21:35 SE 5 10.00 Fair CLR 84.2 70.7 64% 89 29.94 0.0
24 21:15 SE 5 10.00 Fair CLR 85.1 70.3 61% 90 29.93 0.0
24 20:55 SE 7 10.00 Fair CLR 86 70.2 59% 91 29.93 0.0
24 20:35 SE 9 10.00 Fair CLR 87.1 70 57% 92 29.93 0.0
24 20:15 SE 6 10.00 Fair CLR 88.3 68.7 52% 93 29.93 0.0
24 19:55 SE 8 10.00 Fair CLR 89.1 68.9 51% 93 29.93 0.0
24 19:35 SE 9 10.00 Fair CLR 90 68.5 49% 94 29.92 0.0
24 19:15 SE 7 10.00 Partly Cloudy SCT055 90.3 68.5 49% 95 29.92 0.0
24 18:55 SE 5 10.00 Partly Cloudy SCT055 89.4 68 92.3 86.2 49% 93 29.92 0.0
24 18:35 SE 5 10.00 Partly Cloudy SCT060 SCT065 89.6 67.5 48% 93 29.93 0.0
24 18:15 SE 6 10.00 Partly Cloudy SCT060 SCT065 SCT075 90.9 68.4 48% 95 29.93 0.0
24 17:55 SE 5 10.00 Partly Cloudy SCT060 SCT075 SCT090 90.9 68.5 48% 95 29.94 0.0
24 17:35 S 3 10.00 Mostly Cloudy SCT050 SCT070 BKN090 90.5 68 48% 94 29.94 0.0
24 17:15 SE 7 10.00 Mostly Cloudy BKN050 BKN065 BKN085 90.5 68.5 49% 95 29.94 0.0
24 16:55 S 7 10.00 Partly Cloudy SCT050 SCT085 91.2 67.8 46% 95 29.95 0.0
24 16:35 S 5 10.00 Partly Cloudy SCT050 89.6 68 49% 93 29.96 0.0
24 16:15 SE 7 10.00 Partly Cloudy SCT050 SCT060 91.6 69.1 48% 97 29.96 0.0
24 15:55 S 7 10.00 Partly Cloudy SCT050 SCT075 90.7 69.3 49% 96 29.97 0.0
24 15:35 S 8 10.00 Mostly Cloudy BKN050 BKN075 90.9 68.5 48% 95 29.97 0.0
24 15:15 S 7 10.00 Mostly Cloudy BKN050 BKN075 90 68.9 50% 95 29.98 0.0
24 14:55 SE 8 10.00 Fair CLR 90.1 68.9 50% 95 29.99 0.0
24 14:35 S 8 10.00 Partly Cloudy SCT050 SCT070 89.4 70.2 53% 95 29.99 0.0
24 14:15 SE 5 10.00 Overcast BKN044 BKN050 OVC070 88.7 70.3 55% 94 30 0.0
24 13:55 SE 6 10.00 Mostly Cloudy SCT044 BKN060 87.4 70.2 57% 93 30 0.0
24 13:35 S 5 10.00 Partly Cloudy SCT040 SCT047 SCT060 88.3 71.1 57% 94 30.01 0.0
24 13:15 S 6 10.00 Mostly Cloudy BKN040 BKN050 BKN060 87.8 71.1 58% 94 30.02 0.0
24 12:55 SE 5 10.00 Mostly Cloudy SCT038 BKN047 88 72.3 88 72.7 60% 95 30.02 0.0
24 12:35 SE 7 10.00 Mostly Cloudy BKN034 BKN045 86.5 71.1 60% 92 30.03 0.0
24 12:15 S 7 10.00 Mostly Cloudy BKN034 BKN041 84.4 71.2 65% 90 30.04 0.0
24 11:55 S 6 10.00 Partly Cloudy SCT032 85.5 71.2 63% 91 30.04 0.0
24 11:35 SE 7 10.00 Partly Cloudy SCT030 84.6 71.6 65% 90 30.04 0.0
24 11:15 SE 6 10.00 Partly Cloudy SCT027 SCT033 82.9 71.2 68% 88 30.04 0.0
24 10:55 S 7 10.00 Partly Cloudy SCT025 82.4 71.6 70% 87 30.04 0.0
24 10:35 SE 5 10.00 Partly Cloudy SCT025 82.2 71.6 70% 87 30.04 0.0
24 10:15 S 3 10.00 Overcast SCT020 OVC027 81 71.4 73% 85 30.04 0.0
24 09:55 S 8 10.00 Overcast OVC020 79.7 72 77% 83 30.04 0.0
24 09:35 S 5 10.00 Overcast OVC015 80.2 73.4 80% 85 30.04 0.0
24 09:15 S 5 10.00 Overcast OVC015 79.2 72.9 81% 83 30.04 0.0
24 08:55 S 8 10.00 Mostly Cloudy BKN015 78.8 73.4 84% 82 30.04 0.0
24 08:35 S 5 10.00 Partly Cloudy SCT008 SCT017 77 73.2 88% 78 30.04 0.0
24 08:15 S 5 10.00 Partly Cloudy SCT008 76.3 73.4 91% 77 30.03 0.0
24 07:55 Calm 10.00 Partly Cloudy SCT012 75.2 72.7 92% 74 30.02 0.0
24 07:35 Calm 10.00 Overcast OVC012 73.6 72 95% 30.02 0.0
24 07:15 Calm 10.00 Overcast OVC009 72.7 70.7 94% 30.01 0.0
24 06:55 Calm 10.00 Overcast OVC009 72.5 70.9 77 71.6 95% 30.01 0.0
24 06:35 Calm 10.00 Mostly Cloudy BKN009 71.6 69.6 94% 30 0.0
24 06:15 Calm 10.00 Partly Cloudy SCT011 72 70.2 94% 30 0.0
24 05:55 Calm 10.00 Mostly Cloudy BKN011 71.8 70.2 95% 29.99 0.0
24 05:35 Calm 10.00 Partly Cloudy SCT011 72 70.7 96% 29.99 0.0
24 05:15 Calm 10.00 Fair CLR 72.9 70.9 94% 29.99 0.0
24 04:55 Calm 10.00 Partly Cloudy SCT013 73.8 71.6 93% 29.99 0.0
24 04:35 Calm 10.00 Partly Cloudy SCT013 74.1 71.1 90% 29.99 0.0
24 04:15 S 3 10.00 Fair CLR 74.8 71.4 89% 29.99 0.0
24 03:55 Calm 10.00 Fair CLR 75 71.6 89% 74 29.99 0.0
24 03:35 Calm 10.00 Fair CLR 75 71.4 89% 74 29.99 0.0
24 03:15 Calm 10.00 Fair CLR 75 71.6 89% 74 30 0.0
24 02:55 Calm 10.00 Fair CLR 74.8 71.1 88% 30 0.0
24 02:35 Calm 10.00 Fair CLR 75.6 71.4 87% 76 30.01 0.0
24 02:15 Calm 10.00 Fair CLR 76.1 71.1 84% 77 30 0.0
24 01:55 Calm 10.00 Fair CLR 76.6 71.2 83% 78 30.01 0.0
24 01:35 Calm 10.00 Fair CLR 76.6 70.9 82% 78 30.01 0.0
24 01:15 Calm 10.00 Fair CLR 77 70.7 81% 79 30.01 0.0
24 00:55 Calm 10.00 Fair CLR 76.6 69.4 90.5 74.8 79% 78 30.01 0.0
24 00:35 SE 3 10.00 Fair CLR 77 69.1 77% 79 30.02 0.0
24 00:15 Calm 10.00 Fair CLR 75.2 68.5 80% 76 30.02 0.0
23 23:55 Calm 10.00 Fair CLR 77.2 68 73% 79 30.01 0.0
23 23:35 Calm 10.00 Fair CLR 77.2 67.1 71% 79 30.01 0.0
23 23:15 Calm 10.00 Fair CLR 77.4 67.1 71% 79 30.01 0.0
23 22:55 Calm 10.00 Fair CLR 78.1 66.7 68% 80 30 0.0
23 22:35 Calm 10.00 Fair CLR 79 66.2 65% 81 29.99 0.0
23 22:15 E 3 10.00 Fair CLR 79.7 65.8 63% 82 29.99 0.0
23 21:55 Calm 10.00 Fair CLR 80.6 65.7 60% 83 29.99 0.0
23 21:35 Calm 10.00 Fair CLR 81.3 65.5 59% 83 29.97 0.0
23 21:15 Calm 10.00 Fair CLR 81.7 64.9 57% 83 29.97 0.0
23 20:55 E 3 10.00 Fair CLR 83.3 64.4 53% 85 29.96 0.0
23 20:35 E 5 10.00 Fair CLR 85.1 64 49% 86 29.97 0.0
23 19:35 E 5 10.00 Fair CLR 89.2 60.8 39% 89 29.96 0.0
23 18:55 E 5 10.00 Fair CLR 90.5 55.2 91.6 86.9 30% 89 29.96 0.0
23 18:35 E 5 10.00 Fair CLR 91 54.5 29% 89 29.96 0.0
23 18:15 SE 7 10.00 Fair CLR 91 57.7 33% 90 29.96 0.0
23 17:55 E 8 10.00 Fair CLR 91.2 60.1 35% 91 29.96 0.0
23 17:35 E 9 10.00 Fair CLR 91 62.6 39% 92 29.96 0.0
23 17:15 E 8 10.00 Fair CLR 91 62.6 39% 92 29.97 0.0
23 16:55 E 5 10.00 Fair CLR 90.9 61.9 38% 91 29.97 0.0
23 16:35 E 8 10.00 Fair CLR 90.9 61.9 38% 91 29.98 0.0
23 16:15 SE 6 10.00 Fair CLR 91.6 61.9 37% 92 29.99 0.0
23 15:55 E 9 10.00 Fair CLR 90.7 61.3 38% 91 29.99 0.0
23 15:35 E 8 10.00 Fair CLR 91 61.2 37% 91 30 0.0
23 15:15 E 7 10.00 Fair CLR 90.3 61.5 38% 91 30 0.0
23 14:55 NE 8 10.00 Fair CLR 90 61.3 38% 90 30.01 0.0
23 14:35 E 7 10.00 Fair CLR 89.2 63.1 42% 90 30.02 0.0
23 14:15 SE 3 10.00 Fair CLR 89.1 63.7 43% 90 30.03 0.0
23 13:55 E 8 10.00 Fair CLR 88.7 63.7 43% 90 30.03 0.0
23 13:35 Calm 10.00 Fair CLR 88.5 64.9 46% 90 30.04 0.0
23 13:15 NE 5 10.00 Fair CLR 87.1 66.9 51% 90 30.04 0.0
23 12:55 SE 5 10.00 Fair CLR 87.3 66.4 87.3 68.9 50% 90 30.05 0.0
23 12:35 E 7 10.00 Fair CLR 86.4 65.3 50% 88 30.05 0.0
23 12:15 SE 6 10.00 Fair CLR 85.6 66.4 53% 88 30.06 0.0
23 11:55 E 6 10.00 Fair CLR 85.1 67.3 55% 88 30.06 0.0
23 11:35 E 6 10.00 Fair CLR 84.6 67.1 56% 87 30.06 0.0
23 11:15 S 7 10.00 Fair CLR 83.7 66.6 56% 86 30.06 0.0
23 10:55 S 7 10.00 Fair CLR 82.4 68.4 63% 86 30.06 0.0
23 10:35 Calm 10.00 Fair CLR 81.3 69.1 66% 85 30.06 0.0
23 10:15 SE 6 10.00 Fair CLR 80.2 68.9 68% 83 30.06 0.0
23 09:55 S 5 10.00 Fair CLR 78.6 68.7 72% 81 30.07 0.0
23 09:35 S 5 10.00 Fair CLR 77.2 69.1 76% 79 30.07 0.0
23 09:15 Calm 10.00 Fair CLR 76.3 68.7 78% 78 30.06 0.0
23 08:55 Calm 10.00 Fair CLR 74.8 70 85% 30.06 0.0
23 08:35 Calm 10.00 Fair CLR 73.4 69.8 89% 30.07 0.0
23 08:15 Calm 10.00 Fair CLR 71.6 69.4 93% 30.07 0.0
23 07:55 Calm 10.00 Fair CLR 70.5 68.9 95% 30.06 0.0
23 07:35 Calm 10.00 Fair CLR 69.8 68.5 96% 30.06 0.0
23 07:15 Calm 10.00 Fair CLR 69.1 68 96% 30.06 0.0
23 06:55 Calm 10.00 Fair CLR 68.9 67.6 76.1 68.4 96% 30.06 0.0
23 06:35 Calm 10.00 Fair CLR 68.4 67.1 96% 30.05 0.0
23 06:15 Calm 10.00 Fair CLR 68.7 67.3 95% 30.05 0.0
23 05:55 Calm 10.00 Fair CLR 68.9 67.3 95% 30.05 0.0
23 05:35 Calm 10.00 Fair CLR 69.6 67.6 93% 30.05 0.0
23 05:15 Calm 10.00 Fair CLR 69.8 67.5 92% 30.04 0.0
23 04:55 Calm 10.00 Fair CLR 71.2 68.2 90% 30.04 0.0
23 04:35 Calm 10.00 Fair CLR 70.9 68 91% 30.04 0.0
23 04:15 Calm 10.00 Fair CLR 71.6 68 88% 30.04 0.0
23 03:55 Calm 10.00 Fair CLR 71.6 68 88% 30.05 0.0
23 03:35 Calm 10.00 Fair CLR 71.8 68 88% 30.05 0.0
23 03:15 Calm 10.00 Fair CLR 73.4 68.4 84% 30.05 0.0
23 02:55 Calm 10.00 Fair CLR 72.9 68.4 86% 30.06 0.0
23 02:35 S 3 10.00 Fair CLR 74.1 68.4 82% 30.06 0.0
23 02:15 S 5 10.00 Fair CLR 74.3 68.4 82% 30.06 0.0
23 01:55 Calm 10.00 Fair CLR 74.3 68.5 82% 30.07 0.0
23 01:35 Calm 10.00 Fair CLR 75 68.5 80% 76 30.07 0.0
23 01:15 Calm 10.00 Fair CLR 75.2 68.5 80% 76 30.08 0.0
23 00:55 SE 3 10.00 Fair CLR 76.1 68.5 87.4 75.6 78% 77 30.07 0.0
23 00:35 Calm 10.00 Fair CLR 75.7 68.9 79% 77 30.07 0.0
23 00:15 SE 3 10.00 Fair CLR 76.6 68.9 77% 78 30.08 0.0
22 23:55 SE 3 10.00 Fair CLR 77 68.9 76% 79 30.08 0.0
22 23:35 SE 3 10.00 Fair CLR 77.4 68.5 74% 79 30.07 0.0
22 23:15 SE 3 10.00 Fair CLR 77.5 68.2 73% 79 30.07 0.0
22 22:55 SE 3 10.00 Fair CLR 77.9 68 72% 80 30.06 0.0
22 22:35 SE 3 10.00 Fair CLR 78.8 67.5 68% 81 30.06 0.0
22 22:15 SE 3 10.00 Fair CLR 78.8 67.3 68% 81 30.06 0.0
22 21:55 SE 3 10.00 Fair CLR 79.7 66.6 64% 82 30.05 0.0
22 21:35 SE 3 10.00 Fair CLR 80.8 66.2 61% 83 30.04 0.0
22 21:15 SE 5 10.00 Fair CLR 81.7 65.3 58% 84 30.04 0.0
22 20:55 SE 3 10.00 Fair CLR 83.1 65.1 55% 85 30.04 0.0
22 20:35 SE 3 10.00 Fair CLR 83.8 64.9 53% 86 30.03 0.0
22 20:15 SE 6 10.00 Fair CLR 85.3 65.3 51% 87 30.03 0.0
22 19:55 SE 5 10.00 Fair CLR 86.2 64.6 49% 88 30.02 0.0
22 19:35 E 6 10.00 Partly Cloudy SCT065 87.1 64.8 48% 89 30.02 0.0
22 19:15 SE 5 10.00 Partly Cloudy SCT065 86 65.3 50% 88 30.02 0.0
22 18:55 E 6 10.00 Partly Cloudy SCT060 SCT070 86.9 65.5 89.8 84 49% 89 30.02 0.0
22 18:35 SE 8 10.00 Mostly Cloudy BKN060 88.9 65.1 45% 91 30.02 0.0
22 18:15 SE 6 10.00 Partly Cloudy SCT060 89.1 64.9 45% 91 30.02 0.0
22 17:55 E 5 10.00 Partly Cloudy SCT060 SCT075 89.2 63 42% 90 30.02 0.0
22 17:35 SE 6 10.00 Mostly Cloudy BKN060 BKN075 88.9 64.6 45% 91 30.03 0.0
22 17:15 S 7 10.00 Partly Cloudy SCT060 88.7 65.7 47% 91 30.04 0.0
22 16:55 S 6 10.00 Partly Cloudy SCT060 SCT070 88.7 65.5 46% 91 30.04 0.0
22 16:35 SE 5 10.00 Partly Cloudy SCT060 88.5 64.9 46% 90 30.05 0.0
22 16:15 S 5 10.00 Partly Cloudy SCT050 88.7 65.3 46% 91 30.05 0.0
22 15:55 SE 6 10.00 Mostly Cloudy BKN050 87.8 66.2 49% 90 30.06 0.0
22 15:35 E 5 10.00 Mostly Cloudy BKN060 BKN070 87.4 66.2 49% 90 30.06 0.0
22 15:15 SE 5 10.00 Partly Cloudy SCT060 SCT070 86.7 66.6 51% 89 30.07 0.0
22 14:55 S 7 10.00 Partly Cloudy SCT050 SCT065 87.3 67.8 53% 91 30.08 0.0
22 14:35 S 5 10.00 Mostly Cloudy BKN048 BKN065 86.2 66.7 52% 89 30.08 0.0
22 14:15 S 6 10.00 Mostly Cloudy BKN046 BKN050 85.5 67.1 54% 88 30.09 0.0
22 13:55 SW 5 10.00 Mostly Cloudy SCT046 BKN050 86.5 68.2 54% 90 30.1 0.0
22 13:35 SE 6 10.00 Partly Cloudy SCT043 SCT050 85.6 68.5 57% 89 30.1 0.0
22 13:15 SE 7 10.00 Partly Cloudy SCT043 SCT049 85.8 67.3 54% 89 30.1 0.0
22 12:55 S 5 10.00 Mostly Cloudy SCT038 BKN045 83.8 68.4 84.2 70.2 60% 87 30.11 0.0
22 12:35 S 6 10.00 Mostly Cloudy BKN037 BKN042 BKN049 83.3 68.5 61% 87 30.11 0.0
22 12:15 SE 9 10.00 Overcast BKN034 BKN041 OVC049 82.4 69.4 65% 86 30.12 0.0
22 11:55 S 7 10.00 Overcast BKN031 OVC043 81.9 68.7 65% 85 30.12 0.0
22 11:35 S 9 10.00 Mostly Cloudy BKN031 BKN043 81.1 68.4 65% 84 30.12 0.0
22 11:15 S 8 10.00 Partly Cloudy SCT027 SCT034 80.8 69.1 68% 84 30.12 0.0
22 10:55 SE 9 10.00 Mostly Cloudy BKN033 80.2 69.6 70% 83 30.14 0.0
22 10:35 S 7 10.00 Mostly Cloudy SCT022 BKN031 78.1 69.3 74% 80 30.14 0.0
22 10:15 SE 6 10.00 Mostly Cloudy BKN031 77.9 69.6 76% 80 30.14 0.0
22 09:55 S 8 10.00 Mostly Cloudy BKN027 76.3 69.3 79% 77 30.15 0.0
22 09:35 S 7 10.00 Partly Cloudy SCT015 SCT026 76.3 69.6 80% 77 30.15 0.0
22 09:15 S 8 10.00 Partly Cloudy SCT018 76.3 70.2 81% 77 30.15 0.0
Date Time (cdt) Wind (mph) Vis. (mi.) Weather Sky Cond. Air Dwpt Max. Min. Relative Humidity Wind Chill (°F) Heat Index (°F) altimeter (in) sea level (mb) 1 hr 3 hr 6 hr
6 hour
Temperature (ºF) Pressure Precipitation (in)